Location: ????????
(38.4362°N, 22.8767°E)
Time: 13:36:16
(UTC+00:00)

FENGYUN 1C DEB - Pass Details

Date: 20 October 2025
Orbit: 841 x 1273 km, 99.2° (Epoch: 16 November)

Event Time Altitude Azimuth Distance (km) Brightness Sun altitude
Rises 02:13:08 0° 26° (NNE) 3,412 ? -29.9°
Reaches altitude 10° 02:15:47 10° 38° (NE) 2,492 ? -29.3°
Maximum altitude 02:20:28 28° 97° (E) 1,591 ? -28.4°
Drops below altitude 10° 02:25:22 10° 156° (SSE) 2,627 ? -27.5°
Sets 02:28:14 0° 167° (SSE) 3,631 ? -26.9°
